Showing default

MIDAS 6 (FTV 1169), 574

Orbit data source: Space-Track

MIDAS 6 (FTV 1169), 574 is a payload satellite owned by USAF SSD (US) in LEO that was launched on Thu, 09 May 1963 UTC via an ATLAS AGENA B launch vehicle from the Air Force Western Test Range (AFWTR). Payload-class satellites include a variety of spacecraft equipped with specific instruments for various scientific and technological missions. These include communications satellites like Starlink; space stations such as the ISS; scientific satellites like the Hubble; Earth observation satellites from companies like Planet Labs, Umbra, and HawkEye 360; GPS; miniature CubeSats for education and research; and military/defense satellites.

Loading next visibility...
Identifier
574, 1963-014A
Orbit
LEO
Country
Flag of USUS
Related business
Manufacturer
LMSC
Mission
Spacecraft
Bus & Motor
MIDAS, Unknown motor
Mass
~1,540 kg wet, ~840 kg dry
Launch date (UTC)
1963-05-09 (63 years ago)
Launch vehicle
ATLAS AGENA B
Launch site
Air Force Western Test Range (AFWTR)
Object type
Payload
Rocket body
Debris
Shape & HBR
Unknown
Radar Cross Section
Large (>1 m²)

Expand to show TLE details & history
Last TLE update: 2 weeks ago

TLE from 2 weeks ago
0 MIDAS 6 (FTV 1169)
1 00574U 63014A   26152.12721058  .00000028  00000-0  11975-1 0  9996
2 00574  87.3539 197.3000 0031959 129.9668 230.4000  8.65276889216390
Epoch: 2026-06-01T03:03Z
TLE epoch observation values (Epoch: 2026-06-01T03:03:10.994Z)
Latitude
-0.00002°
Longitude
-98.11481°
Altitude
3,666.776 km
Speed
6.294 km/s
True Right ascension
13h 09m 11s
True Declination
0° 00' 00"
Sunlit
Object was in daylight at epoch
Visualization orbit readout
Latitude
Unknown
Longitude
Unknown
Altitude
Unknown
Speed
Unknown
Apparent Right ascension
Unknown
Apparent Declination
Unknown
Sunlit
N/A
Visualization observer readout
Local Sidereal Time
20:41:35
Azimuth
Unknown
Elevation
Unknown
Doppler factor
Unknown
Orbital elements
Apogee altitude
3,673.957 km
Perigee altitude
3,609.91 km
Semi-major axis
10,020.07 km
Eccentricity
0.0032
Inclination
87.3539°
RAAN
197.3°
Arg. of periapsis
129.9668°
True anomaly
230.11854°
Mean anomaly
230.4°
Eccentric anomaly
230.2592°
Mean motion
2.1639 °/min
Orbital period
166.37 mins
BSTAR
0.011975

Documentation

Showing up to 5 results
|